Location: Newark
(37.8333°N, 119.5000°W)
Time: 06:30:49
(UTC+00:00)

Tiros 1 despin weight - Pass Details

Date: 23 August 2019
Orbit: 595 x 642 km, 48.2° (Epoch: 15 September)

Event Time Altitude Azimuth Distance (km) Brightness Sun altitude
Rises 08:38:29 0° 273° (W) 2,838 - -39.9°
Reaches altitude 10° 08:41:02 10° 286° (WNW) 1,943 - -39.8°
Maximum altitude 08:44:51 27° 345° (NNW) 1,169 - -39.6°
Drops below altitude 10° 08:48:44 10° 44° (NE) 1,971 - -39.4°
Exits shadow 08:49:15 - 47° (NE) 2,144 ? -39.4°
Sets 08:51:21 0° 57° (ENE) 2,886 ? -39.3°
